Location: Cardiff
(53.7833°N, 113.6000°W)
Time: 08:28:01
(UTC+00:00)

RS-15 - Pass Details

Date: 05 December 2023
Orbit: 1893 x 2151 km, 64.8° (Epoch: 21 February)

Event Time Altitude Azimuth Distance (km) Brightness Sun altitude
Exits shadow 13:17:34 20° 308° (NW) 3,666 8.9 -18.9°
Maximum altitude 13:25:22 49° 245° (WSW) 2,394 8.1 -17.8°
Drops below altitude 10° 13:35:38 10° 175° (S) 4,288 10.1 -16.4°
Sets 13:38:58 0° 170° (S) 5,270 10.7 -15.9°
